• Join FlightAware (Why Join?)
  • Login
  • US Flag 
10:14PM EST


 

Airport Tracker/Info


-or-


 

Live Flight TrackerFlight Track Log ✈ SKW5486 ✈ 31-Mar-2014 ✈ KORD - MMMY / MTY

Flight Track Log - Related Links

Times and Time Zones

All times are in EDT time to prevent confusion due to time zone crossing. See the SKW5486 flight status page for this flight to view local times or setup timezone preferences in your user account.

Time Position Orientation Groundspeed Altitude Reporting Facility
EDT Latitude Longitude Course Direction KTS MPH feet Rate Location/Type
11:37AM 41.9333 -87.9167 194° South 161 185 2,000  Level Chicago TRACON
11:38AM 41.8833 -87.9333 194° South 174 200 4,200 1,708 Climbing Chicago TRACON
11:39AM 41.8056 -87.9708 200° South 229 264 6,100 1,697 Climbing Chicago Center
11:40AM 41.7400 -88.0008 199° South 250 288 8,300 2,293 Climbing Chicago Center
11:41AM 41.6733 -88.0372 202° Southwest 257 296 10,800 2,098 Climbing Chicago Center
11:42AM 41.5981 -88.0764 201° Southwest 269 310 12,600 1,366 Climbing Chicago Center
11:43AM 41.5139 -88.1208 202° Southwest 329 379 13,600 1,403 Climbing Chicago Center
11:44AM 41.4272 -88.1667 202° Southwest 335 386 15,500 1,756 Climbing Chicago Center
11:45AM 41.3275 -88.2153 200° South 355 409 17,200 1,610 Climbing Chicago Center
11:46AM 41.2378 -88.2556 199° South 358 412 18,800 1,500 Climbing Chicago Center
11:47AM 41.1414 -88.2997 199° South 362 417 20,300 1,463 Climbing Chicago Center
11:48AM 41.0431 -88.3444 199° South 370 426 21,800 1,366 Climbing Chicago Center
11:49AM 40.9425 -88.3881 198° South 376 433 23,100 1,317 Climbing Chicago Center
11:50AM 40.8422 -88.4333 199° South 382 440 24,500 1,317 Climbing Chicago Center
11:51AM 40.7406 -88.4789 199° South 383 441 25,800 1,210 Climbing Chicago Center
11:52AM 40.6208 -88.5325 199° South 377 434 27,000 871 Climbing Chicago Center
11:54AM 40.5153 -88.5789 198° South 392 451 27,600 634 Climbing Chicago Center
11:55AM 40.4019 -88.6294 199° South 432 497 28,300 732 Climbing Chicago Center
11:56AM 40.2961 -88.6875 203° Southwest 421 484 29,100 968 Climbing Chicago Center
11:57AM 40.2081 -88.7800 219° Southwest 406 467 30,300 1,122 Climbing Chicago Center
11:58AM 40.1211 -88.8672 218° Southwest 398 458 31,400 927 Climbing Chicago Center
11:59AM 40.0347 -88.9572 219° Southwest 397 457 32,200 823 Climbing Chicago Center
12:00PM 39.9500 -89.0450 218° Southwest 394 453 33,100 1,016 Climbing Chicago Center
12:01PM 39.8492 -89.1478 218° Southwest 387 445 34,300 1,073 Climbing Chicago Center
12:02PM 39.7672 -89.2308 218° Southwest 376 433 35,300 780 Climbing Chicago Center
12:03PM 39.6872 -89.3125 218° Southwest 369 425 35,900 339 Climbing Chicago Center
12:04PM 39.6053 -89.3942 218° Southwest 368 423 36,000 48 Climbing Chicago Center
12:05PM 39.5222 -89.4789 218° Southwest 377 434 36,000  Level Chicago Center
12:06PM 39.4400 -89.5628 218° Southwest 377 434 36,000  Level Chicago Center
12:07PM 39.3472 -89.6522 217° Southwest 373 429 36,000  Level Kansas City Center
12:08PM 39.2675 -89.7325 218° Southwest 369 425 36,000  Level Kansas City Center
12:09PM 39.1878 -89.8125 218° Southwest 367 422 36,000  Level Kansas City Center
12:10PM 39.1064 -89.8944 218° Southwest 368 423 36,000  Level Kansas City Center
12:11PM 39.0236 -89.9769 218° Southwest 374 430 36,000  Level Kansas City Center
12:12PM 38.9278 -90.0883 222° Southwest 382 440 36,000  Level Kansas City Center
12:13PM 38.8594 -90.1717 224° Southwest 382 440 36,000  Level Kansas City Center
12:14PM 38.7628 -90.2881 223° Southwest 392 451 36,000  Level Kansas City Center
12:15PM 38.6806 -90.3844 222° Southwest 396 456 36,000  Level Kansas City Center
12:16PM 38.6000 -90.4817 223° Southwest 396 456 36,000  Level Kansas City Center
12:17PM 38.5208 -90.5769 223° Southwest 396 456 36,000  Level Kansas City Center
12:18PM 38.4403 -90.6714 223° Southwest 395 455 36,000  Level Kansas City Center
12:19PM 38.3636 -90.7647 224° Southwest 394 453 36,000  Level Kansas City Center
12:20PM 38.2858 -90.8575 223° Southwest 390 449 36,000  Level Kansas City Center
12:21PM 38.1919 -90.9683 223° Southwest 387 445 36,000  Level Kansas City Center
12:22PM 38.1089 -91.0658 223° Southwest 387 445 36,000  Level Kansas City Center
12:23PM 38.0297 -91.1578 222° Southwest 387 445 36,000  Level Kansas City Center
12:25PM 37.9514 -91.2506 223° Southwest 386 444 36,000  Level Kansas City Center
12:26PM 37.8708 -91.3425 222° Southwest 386 444 36,000  Level Kansas City Center
12:27PM 37.7936 -91.4358 224° Southwest 385 443 36,000  Level Kansas City Center
12:28PM 37.7144 -91.5278 223° Southwest 385 443 36,000  Level Kansas City Center
12:29PM 37.6364 -91.6203 223° Southwest 384 442 36,000  Level Kansas City Center
12:30PM 37.5414 -91.7303 223° Southwest 384 442 36,000  Level Kansas City Center
12:31PM 37.4769 -91.8358 232° Southwest 381 438 36,000  Level Kansas City Center
12:32PM 37.4128 -91.9447 233° Southwest 381 438 36,000  Level Kansas City Center
12:33PM 37.3472 -92.0533 233° Southwest 382 440 36,000  Level Kansas City Center
12:34PM 37.2833 -92.1594 233° Southwest 382 440 36,000  Level Kansas City Center
12:35PM 37.2219 -92.2647 234° Southwest 372 428 36,000  Level Kansas City Center
12:36PM 37.1575 -92.3567 229° Southwest 355 409 36,000  Level Kansas City Center
12:37PM 37.0836 -92.4386 222° Southwest 354 407 36,000  Level Kansas City Center
12:38PM 37.0067 -92.5228 221° Southwest 360 414 36,000  Level Kansas City Center
12:39PM 36.9103 -92.6231 220° Southwest 370 426 36,000  Level Kansas City Center
12:40PM 36.8286 -92.7092 220° Southwest 379 436 36,000  Level Kansas City Center
12:42PM 36.6839 -92.8261 213° Southwest 388 447 36,000  Level Memphis Center
12:43PM 36.5925 -92.8989 213° Southwest 388 447 36,000  Level Memphis Center
12:44PM 36.5028 -92.9725 213° Southwest 387 445 36,000  Level Memphis Center
12:45PM 36.4136 -93.0433 213° Southwest 382 440 36,000  Level Memphis Center
12:46PM 36.3139 -93.1250 213° Southwest 380 437 36,000  Level Memphis Center
12:47PM 36.2256 -93.1953 213° Southwest 379 436 36,000  Level Memphis Center
12:48PM 36.1367 -93.2675 213° Southwest 378 435 36,000  Level Memphis Center
12:49PM 36.0469 -93.3383 213° Southwest 378 435 36,000  Level Memphis Center
12:50PM 35.9553 -93.4100 212° Southwest 384 442 36,000  Level Memphis Center
12:51PM 35.8631 -93.4839 213° Southwest 386 444 36,000  Level Memphis Center
12:52PM 35.7519 -93.5714 213° Southwest 388 447 36,000  Level Memphis Center
12:53PM 35.6594 -93.6442 213° Southwest 390 449 36,000  Level Memphis Center
12:54PM 35.5658 -93.7178 213° Southwest 393 452 36,000  Level Memphis Center
12:55PM 35.4711 -93.7922 213° Southwest 396 456 36,000  Level Memphis Center
12:56PM 35.3764 -93.8647 212° Southwest 397 457 36,000  Level Memphis Center
12:57PM 35.2808 -93.9408 213° Southwest 401 461 36,000  Level Memphis Center
12:58PM 35.1853 -94.0147 212° Southwest 402 463 36,000  Level Memphis Center
12:59PM 35.0828 -94.0947 213° Southwest 405 466 36,000  Level Memphis Center
01:00PM 34.9869 -94.1686 212° Southwest 406 467 36,000  Level Memphis Center
01:01PM 34.8708 -94.2567 212° Southwest 407 468 36,000  Level Memphis Center
01:02PM 34.7769 -94.3292 212° Southwest 407 468 36,000  Level Memphis Center
01:03PM 34.6825 -94.4011 212° Southwest 406 467 36,000  Level Memphis Center
01:04PM 34.5889 -94.4722 212° Southwest 402 463 36,000  Level Memphis Center
01:05PM 34.5325 -94.5178 214° Southwest 406 467 36,000  Level Fort Worth Center
01:06PM 34.4383 -94.5883 212° Southwest 405 466 36,000  Level Fort Worth Center
01:07PM 34.3436 -94.6578 211° Southwest 403 464 36,000  Level Fort Worth Center
01:08PM 34.2486 -94.7303 212° Southwest 401 461 36,000  Level Fort Worth Center
01:09PM 34.1506 -94.8064 213° Southwest 411 473 36,000  Level Fort Worth Center
01:10PM 34.0333 -94.8936 212° Southwest 416 479 36,000  Level Fort Worth Center
01:11PM 33.9356 -94.9656 211° Southwest 415 478 36,000  Level Fort Worth Center
01:12PM 33.8389 -95.0386 212° Southwest 413 475 36,000  Level Fort Worth Center
01:13PM 33.7436 -95.1094 212° Southwest 411 473 36,000  Level Fort Worth Center
01:14PM 33.6486 -95.1794 212° Southwest 404 465 36,000  Level Fort Worth Center
01:15PM 33.5364 -95.2631 212° Southwest 401 461 36,000  Level Fort Worth Center
01:16PM 33.4425 -95.3325 212° Southwest 398 458 36,000  Level Fort Worth Center
01:17PM 33.3475 -95.4031 212° Southwest 401 461 36,000  Level Fort Worth Center
01:18PM 33.2536 -95.4717 211° Southwest 400 460 36,000  Level Fort Worth Center
01:19PM 33.1619 -95.5417 213° Southwest 398 458 36,000  Level Fort Worth Center
01:20PM 33.0567 -95.6153 210° Southwest 402 463 36,000  Level Fort Worth Center
01:21PM 32.9650 -95.6833 212° Southwest 398 458 36,000  Level Fort Worth Center
01:22PM 32.8475 -95.7681 211° Southwest 402 463 36,000  Level Fort Worth Center
01:24PM 32.7508 -95.8378 211° Southwest 403 464 36,000  Level Fort Worth Center
01:25PM 32.6469 -95.9136 212° Southwest 404 465 36,000  Level Fort Worth Center
01:26PM 32.5583 -95.9767 211° Southwest 405 466 36,000  Level Fort Worth Center
01:27PM 32.4603 -96.0483 212° Southwest 408 470 36,000  Level Fort Worth Center
01:28PM 32.3633 -96.1178 211° Southwest 408 470 36,000  Level Fort Worth Center
01:29PM 32.2658 -96.1864 211° Southwest 408 470 36,000  Level Fort Worth Center
01:30PM 32.1486 -96.2697 211° Southwest 407 468 36,000  Level Fort Worth Center
01:31PM 32.0517 -96.3397 211° Southwest 408 470 36,000  Level Fort Worth Center
01:32PM 31.9544 -96.4092 211° Southwest 408 470 36,000  Level Fort Worth Center
01:33PM 31.8589 -96.4767 211° Southwest 405 466 36,000  Level Fort Worth Center
01:33PM 31.7958 -96.5206 211° Southwest 402 463 36,000  Level Houston Center
01:34PM 31.7000 -96.5878 211° Southwest 402 463 36,000  Level Houston Center
01:36PM 31.6050 -96.6544 211° Southwest 401 461 36,000  Level Houston Center
01:37PM 31.4889 -96.7361 211° Southwest 402 463 36,000  Level Houston Center
01:38PM 31.3917 -96.8050 211° Southwest 406 467 36,000  Level Houston Center
01:39PM 31.2942 -96.8725 211° Southwest 406 467 36,000  Level Houston Center
01:40PM 31.1969 -96.9403 211° Southwest 407 468 36,000  Level Houston Center
01:41PM 31.0919 -97.0139 211° Southwest 408 470 36,000  Level Houston Center
01:42PM 30.9939 -97.0814 211° Southwest 409 471 36,000  Level Houston Center
01:43PM 30.8964 -97.1492 211° Southwest 409 471 36,000  Level Houston Center
01:44PM 30.7994 -97.2164 211° Southwest 408 470 36,000  Level Houston Center
01:45PM 30.6797 -97.2986 211° Southwest 412 474 36,000  Level Houston Center
01:46PM 30.5794 -97.3672 211° Southwest 416 479 36,000  Level Houston Center
01:47PM 30.4781 -97.4356 210° Southwest 418 481 36,000  Level Houston Center
01:48PM 30.3786 -97.5044 211° Southwest 420 483 36,000  Level Houston Center
01:49PM 30.2786 -97.5725 210° Southwest 420 483 36,000  Level Houston Center
01:50PM 30.1586 -97.6533 210° Southwest 417 480 36,000  Level Houston Center
01:51PM 30.0531 -97.7256 211° Southwest 418 481 36,000  Level Houston Center
01:52PM 29.9519 -97.7936 210° Southwest 418 481 36,000  Level Houston Center
01:53PM 29.8431 -97.8672 210° Southwest 419 482 36,000  Level Houston Center
01:54PM 29.7417 -97.9353 210° Southwest 420 483 36,000  Level Houston Center
01:55PM 29.6325 -98.0083 210° Southwest 420 483 36,000  Level Houston Center
01:56PM 29.5303 -98.0764 210° Southwest 420 483 36,000  Level Houston Center
01:57PM 29.4200 -98.1494 210° Southwest 421 484 36,000  Level Houston Center
01:58PM 29.3172 -98.2178 210° Southwest 422 486 36,000  Level Houston Center
01:59PM 29.2153 -98.2864 210° Southwest 422 486 36,000  Level Houston Center
02:00PM 29.1061 -98.3597 210° Southwest 422 486 36,000  Level Houston Center
02:01PM 29.0036 -98.4275 210° Southwest 422 486 36,000  Level Houston Center
02:02PM 28.8986 -98.5050 213° Southwest 418 481 36,000  Level Houston Center
02:04PM 28.8003 -98.5772 213° Southwest 419 482 36,000  Level Houston Center
02:05PM 28.6956 -98.6536 213° Southwest 417 480 36,000  Level Houston Center
02:06PM 28.6047 -98.7206 213° Southwest 417 480 36,000  Level Houston Center
02:07PM 28.5086 -98.7906 213° Southwest 416 479 36,000  Level Houston Center
02:08PM 28.4117 -98.8625 213° Southwest 415 478 36,000  Level Houston Center
02:09PM 28.2953 -98.9467 212° Southwest 415 478 36,000  Level Houston Center
02:10PM 28.1989 -99.0175 213° Southwest 415 478 36,000  Level Houston Center
02:11PM 28.0997 -99.0886 212° Southwest 414 476 36,000  Level Houston Center
02:12PM 28.0061 -99.1567 213° Southwest 414 476 36,000  Level Houston Center
02:13PM 27.9097 -99.2264 213° Southwest 414 476 36,000  Level Houston Center
02:14PM 27.7939 -99.3106 213° Southwest 414 476 36,000  Level Houston Center
02:15PM 27.6978 -99.3800 213° Southwest 414 476 36,000  Level Houston Center
02:16PM 27.6022 -99.4492 213° Southwest 414 476 36,000  Level Houston Center
02:17PM 27.5053 -99.5172 212° Southwest 413 475 36,000  Level Houston Center
02:19PM 27.3504 -99.5709 193° South  Level Estimated
02:26PM 26.6351 -99.8167 195° South  Level Estimated
02:27PM 26.5329 -99.8515 195° South  Level Estimated
02:28PM 26.4295 -99.8817 195° South  Level FlightAware Approximate
02:29PM 26.3275 -99.9172 195° South  Level Estimated
02:30PM 26.2238 -99.9461 194° South  Level FlightAware Approximate
02:31PM 26.1222 -99.9829 194° South  Level Estimated
02:32PM 26.0206 -100.0196 204° Southwest  Level Estimated
02:33PM 25.9189 -100.0563 190° South  Level Estimated
02:34PM 25.8173 -100.0929 204° Southwest  Level Estimated
02:35PM 25.7785 -100.1069 North  Level Estimated
02:36PM 25.7785 -100.1069 North  Level Estimated
02:37PM 25.7785 -100.1069 North  Level Estimated
02:38PM 25.7785 -100.1069 North  Level Estimated